Location: Saratoga Springs
(43.0831°N, 73.7850°W)
Time: 12:27:41
(UTC-04:00)

Vanguard 3 - Pass Details

Date: 24 April 2024
Orbit: 509 x 3233 km, 33.3° (Epoch: 23 May)

Event Time Altitude Azimuth Distance (km) Brightness Sun altitude
Exits shadow 04:41:34 16° 238° (WSW) 5,071 10.5 -13.4°
Maximum altitude 04:54:10 49° 174° (S) 2,482 9.4 -11.5°
Drops below altitude 10° 05:03:12 10° 103° (ESE) 3,504 11.2 -10.0°
Sets 05:05:39 0° 97° (E) 4,186 11.8 -9.6°
